| time (UTC) | temp F | wind direction | speed knots | gust knots | rain 1hr in | rain 24hr in | rain mn in | humidity % | barometer mb |
| 20260507072531 | 65 | 69 | 4.3 | 12.2 | 0.00 | 0.00 | 0.00 | 80 | 1015.1 |
| 20260507072034 | 65 | 38 | 7.0 | 12.2 | 0.00 | 0.00 | 0.00 | 80 | 1015.3 |
| 20260507071548 | 65 | 58 | 6.1 | 12.2 | 0.00 | 0.00 | 0.00 | 80 | 1015.3 |
| 20260507071034 | 65 | 72 | 4.3 | 9.6 | 0.00 | 0.00 | 0.00 | 80 | 1015.4 |
| 20260507070534 | 65 | 78 | 5.2 | 9.6 | 0.00 | 0.00 | 0.00 | 81 | 1015.4 |
| 20260507070135 | 65 | 87 | 6.1 | 9.6 | 0.00 | 0.00 | 0.00 | 81 | 1015.4 |
| 20260507065534 | 65 | 60 | 4.3 | 8.7 | 0.00 | 0.00 | 0.00 | 81 | 1015.4 |
| 20260507065033 | 65 | 56 | 3.5 | 10.4 | 0.00 | 0.00 | 0.00 | 81 | 1015.6 |
| 20260507064550 | 65 | 70 | 4.3 | 10.4 | 0.00 | 0.00 | 0.00 | 81 | 1015.4 |
| 20260507064034 | 65 | 105 | 5.2 | 8.7 | 0.00 | 0.00 | 0.00 | 82 | 1015.1 |
| 20260507063532 | 65 | 51 | 5.2 | 8.7 | 0.00 | 0.00 | 0.00 | 82 | 1015.2 |
| 20260507063047 | 65 | 74 | 2.6 | 8.7 | 0.00 | 0.00 | 0.00 | 82 | 1015.2 |
| 20260507062535 | 65 | 73 | 4.3 | 8.7 | 0.00 | 0.00 | 0.00 | 82 | 1015.1 |
| 20260507062034 | 65 | 65 | 3.5 | 7.0 | 0.00 | 0.00 | 0.00 | 83 | 1014.9 |
| 20260507061547 | 65 | 53 | 2.6 | 7.0 | 0.00 | 0.00 | 0.00 | 83 | 1015.0 |
| 20260507061034 | 65 | 79 | 2.6 | 7.0 | 0.00 | 0.00 | 0.00 | 83 | 1015.0 |
| 20260507060531 | 65 | 70 | 4.3 | 7.0 | 0.00 | 0.00 | 0.00 | 83 | 1015.0 |
| 20260507060047 | 65 | 94 | 3.5 | 7.0 | 0.00 | 0.00 | 0.00 | 83 | 1014.7 |
| 20260507055534 | 65 | 100 | 4.3 | 7.8 | 0.00 | 0.00 | 0.00 | 82 | 1014.7 |
| 20260507055034 | 65 | 68 | 3.5 | 8.7 | 0.00 | 0.00 | 0.00 | 82 | 1014.7 |
| 20260507054552 | 65 | 66 | 5.2 | 8.7 | 0.00 | 0.00 | 0.00 | 82 | 1014.5 |
| 20260507054032 | 65 | 62 | 3.5 | 7.8 | 0.00 | 0.00 | 0.00 | 82 | 1014.4 |
| 20260507053533 | 65 | 65 | 3.5 | 8.7 | 0.00 | 0.00 | 0.00 | 82 | 1014.4 |
| 20260507053044 | 65 | 83 | 5.2 | 10.4 | 0.00 | 0.00 | 0.00 | 82 | 1014.3 |
| 20260507052533 | 65 | 72 | 5.2 | 10.4 | 0.00 | 0.00 | 0.00 | 82 | 1014.0 |
| 20260507052031 | 65 | 55 | 5.2 | 10.4 | 0.00 | 0.00 | 0.00 | 82 | 1014.2 |
| 20260507051549 | 65 | 57 | 3.5 | 9.6 | 0.00 | 0.00 | 0.00 | 82 | 1014.1 |
| 20260507051033 | 65 | 51 | 5.2 | 10.4 | 0.00 | 0.00 | 0.00 | 82 | 1014.1 |
| 20260507050533 | 65 | 57 | 4.3 | 10.4 | 0.00 | 0.00 | 0.00 | 82 | 1013.8 |
| 20260507050048 | 65 | 72 | 6.1 | 10.4 | 0.00 | 0.00 | 0.00 | 82 | 1013.7 |
| 20260507045534 | 66 | 91 | 5.2 | 8.7 | 0.00 | 0.00 | 0.00 | 82 | 1013.8 |
| 20260507045037 | 66 | 60 | 3.5 | 8.7 | 0.00 | 0.00 | 0.00 | 82 | 1013.9 |
| 20260507044549 | 66 | 68 | 4.3 | 8.7 | 0.00 | 0.00 | 0.00 | 82 | 1013.9 |
| 20260507044032 | 66 | 47 | 3.5 | 7.8 | 0.00 | 0.00 | 0.00 | 82 | 1014.0 |
| 20260507043531 | 66 | 85 | 3.5 | 9.6 | 0.00 | 0.00 | 0.00 | 82 | 1013.9 |
| 20260507043049 | 66 | 76 | 5.2 | 9.6 | 0.00 | 0.00 | 0.00 | 82 | 1013.9 |
| 20260507042530 | 66 | 56 | 4.3 | 9.6 | 0.00 | 0.00 | 0.00 | 82 | 1014.0 |
| 20260507042035 | 66 | 37 | 3.5 | 7.8 | 0.00 | 0.00 | 0.00 | 82 | 1014.3 |
| 20260507041549 | 66 | 43 | 2.6 | 7.8 | 0.00 | 0.00 | 0.00 | 82 | 1014.2 |
| 20260507041033 | 66 | 43 | 3.5 | 7.8 | 0.00 | 0.00 | 0.00 | 81 | 1014.2 |
| 20260507040531 | 66 | 37 | 1.7 | 7.8 | 0.00 | 0.00 | 0.00 | 82 | 1014.1 |
| 20260507040051 | 66 | 47 | 1.7 | 7.8 | 0.00 | 0.00 | 0.00 | 82 | 1013.8 |
| 20260507035533 | 66 | 46 | 2.6 | 7.8 | 0.00 | 0.00 | 0.00 | 81 | 1013.7 |
| 20260507035034 | 66 | 5 | 3.5 | 9.6 | 0.00 | 0.00 | 0.00 | 81 | 1013.6 |
| 20260507034549 | 66 | 60 | 4.3 | 9.6 | 0.00 | 0.00 | 0.00 | 81 | 1013.4 |
| 20260507034033 | 66 | 41 | 6.1 | 8.7 | 0.00 | 0.00 | 0.00 | 81 | 1013.4 |
| 20260507033537 | 66 | 45 | 5.2 | 8.7 | 0.00 | 0.00 | 0.00 | 81 | 1013.2 |
| 20260507033048 | 66 | 64 | 4.3 | 7.8 | 0.00 | 0.00 | 0.00 | 81 | 1013.1 |
| 20260507032534 | 66 | 45 | 4.3 | 7.8 | 0.00 | 0.00 | 0.00 | 80 | 1013.2 |
| 20260507032033 | 66 | 77 | 4.3 | 7.8 | 0.00 | 0.00 | 0.00 | 80 | 1013.3 |
| 20260507031550 | 66 | 66 | 3.5 | 10.4 | 0.00 | 0.00 | 0.00 | 80 | 1013.3 |
| 20260507031036 | 66 | 98 | 3.5 | 10.4 | 0.00 | 0.00 | 0.00 | 80 | 1013.1 |
| 20260507030531 | 66 | 51 | 4.3 | 10.4 | 0.00 | 0.00 | 0.00 | 80 | 1013.0 |
| 20260507030056 | 67 | 39 | 5.2 | 10.4 | 0.00 | 0.00 | 0.00 | 80 | 1012.9 |
| 20260507025532 | 67 | 36 | 5.2 | 10.4 | 0.00 | 0.00 | 0.00 | 80 | 1013.0 |
| 20260507025035 | 67 | 49 | 5.2 | 9.6 | 0.00 | 0.00 | 0.00 | 79 | 1013.0 |
| 20260507024548 | 67 | 33 | 2.6 | 10.4 | 0.00 | 0.00 | 0.00 | 79 | 1013.0 |
| 20260507024035 | 67 | 35 | 6.1 | 13.9 | 0.00 | 0.00 | 0.00 | 79 | 1012.9 |
| 20260507023537 | 67 | 49 | 6.1 | 13.9 | 0.00 | 0.00 | 0.00 | 78 | 1012.9 |
| 20260507023048 | 67 | 31 | 7.8 | 13.0 | 0.00 | 0.00 | 0.00 | 78 | 1012.7 |
| 20260507022532 | 67 | 21 | 7.0 | 11.3 | 0.00 | 0.00 | 0.00 | 78 | 1012.7 |
| 20260507022032 | 68 | 33 | 4.3 | 11.3 | 0.00 | 0.00 | 0.00 | 78 | 1012.8 |
| 20260507021602 | 68 | 57 | 5.2 | 9.6 | 0.00 | 0.00 | 0.00 | 77 | 1012.7 |
| 20260507021034 | 68 | 332 | 4.3 | 10.4 | 0.00 | 0.00 | 0.00 | 77 | 1012.7 |
| 20260507020532 | 68 | 16 | 2.6 | 11.3 | 0.00 | 0.00 | 0.00 | 77 | 1012.6 |
| 20260507020056 | 68 | 22 | 3.5 | 11.3 | 0.00 | 0.00 | 0.00 | 77 | 1012.7 |
| 20260507015534 | 69 | 28 | 7.0 | 11.3 | 0.00 | 0.00 | 0.00 | 76 | 1012.5 |
| 20260507015031 | 69 | 29 | 6.1 | 11.3 | 0.00 | 0.00 | 0.00 | 76 | 1012.4 |
| 20260507014609 | 69 | 44 | 4.3 | 13.0 | 0.00 | 0.00 | 0.00 | 76 | 1012.2 |
| 20260507014035 | 69 | 10 | 7.0 | 13.0 | 0.00 | 0.00 | 0.00 | 75 | 1012.1 |
| 20260507013534 | 69 | 58 | 7.0 | 14.8 | 0.00 | 0.00 | 0.00 | 75 | 1012.0 |
| 20260507013053 | 70 | 62 | 7.8 | 14.8 | 0.00 | 0.00 | 0.00 | 75 | 1011.9 |
| 20260507012534 | 70 | 24 | 6.1 | 13.9 | 0.00 | 0.00 | 0.00 | 74 | 1011.4 |
| 20260507012036 | 70 | 26 | 7.8 | 13.0 | 0.00 | 0.00 | 0.00 | 74 | 1011.5 |
| 20260507011548 | 71 | 50 | 6.1 | 13.0 | 0.00 | 0.00 | 0.00 | 74 | 1011.6 |
| 20260507011034 | 71 | 33 | 7.0 | 13.0 | 0.00 | 0.00 | 0.00 | 73 | 1011.6 |
| 20260507010535 | 71 | 349 | 7.8 | 13.0 | 0.00 | 0.00 | 0.00 | 73 | 1011.5 |
| 20260507010100 | 72 | 26 | 7.8 | 12.2 | 0.00 | 0.00 | 0.00 | 72 | 1011.3 |
| 20260507005535 | 72 | 24 | 7.0 | 11.3 | 0.00 | 0.00 | 0.00 | 73 | 1011.6 |
| 20260507005033 | 72 | 58 | 5.2 | 10.4 | 0.00 | 0.00 | 0.00 | 74 | 1011.6 |
| 20260507004547 | 72 | 353 | 4.3 | 12.2 | 0.00 | 0.00 | 0.00 | 74 | 1011.4 |
| 20260507004035 | 72 | 33 | 5.2 | 12.2 | 0.00 | 0.00 | 0.00 | 73 | 1011.3 |
| 20260507003534 | 73 | 37 | 5.2 | 13.9 | 0.00 | 0.00 | 0.00 | 73 | 1011.1 |
| 20260507003047 | 73 | 29 | 6.1 | 13.9 | 0.00 | 0.00 | 0.00 | 72 | 1011.2 |
| 20260507002536 | 74 | 20 | 4.3 | 16.5 | 0.00 | 0.00 | 0.00 | 73 | 1011.3 |
| 20260507002033 | 74 | 36 | 6.1 | 16.5 | 0.00 | 0.00 | 0.00 | 72 | 1011.1 |
| 20260507001552 | 75 | 29 | 7.8 | 13.0 | 0.00 | 0.00 | 0.00 | 72 | 1010.8 |
| 20260507001030 | 75 | 26 | 5.2 | 12.2 | 0.00 | 0.00 | 0.00 | 72 | 1010.9 |
| 20260507000531 | 75 | 20 | 6.1 | 14.8 | 0.00 | 0.00 | 0.00 | 72 | 1010.9 |
| 20260507000048 | 75 | 8 | 6.1 | 14.8 | 0.00 | 0.00 | 0.00 | 72 | 1010.8 |
| 20260506235535 | 75 | 39 | 7.0 | 14.8 | 0.00 | 0.00 | 0.00 | 72 | 1010.8 |
| 20260506235036 | 76 | 29 | 8.7 | 14.8 | 0.00 | 0.00 | 0.00 | 71 | 1010.5 |
| 20260506234547 | 76 | 22 | 7.8 | 14.8 | 0.00 | 0.00 | 0.00 | 70 | 1010.4 |
| 20260506234034 | 76 | 37 | 8.7 | 16.5 | 0.00 | 0.00 | 0.00 | 71 | 1010.2 |
| 20260506233532 | 76 | 2 | 7.0 | 16.5 | 0.00 | 0.00 | 0.00 | 71 | 1010.1 |
| 20260506233049 | 77 | 39 | 7.8 | 16.5 | 0.00 | 0.00 | 0.00 | 70 | 1010.2 |
| 20260506232534 | 77 | 8 | 9.6 | 13.9 | 0.00 | 0.00 | 0.00 | 69 | 1010.1 |
| 20260506232034 | 78 | 345 | 7.0 | 13.9 | 0.00 | 0.00 | 0.00 | 69 | 1010.0 |
| 20260506231546 | 78 | 52 | 6.1 | 13.9 | 0.00 | 0.00 | 0.00 | 69 | 1009.9 |
| 20260506231035 | 78 | 16 | 8.7 | 13.0 | 0.00 | 0.00 | 0.00 | 69 | 1009.8 |
| 20260506230531 | 79 | 7 | 8.7 | 13.9 | 0.00 | 0.00 | 0.00 | 69 | 1009.7 |
| 20260506230103 | 80 | 345 | 7.0 | 13.9 | 0.00 | 0.00 | 0.00 | 68 | 1009.7 |
| 20260506225535 | 81 | 39 | 8.7 | 13.9 | 0.00 | 0.00 | 0.00 | 68 | 1009.7 |
| 20260506225035 | 81 | 350 | 6.1 | 14.8 | 0.00 | 0.00 | 0.00 | 66 | 1009.6 |
| 20260506224549 | 83 | 23 | 7.0 | 14.8 | 0.00 | 0.00 | 0.00 | 66 | 1009.5 |
| 20260506224032 | 85 | 18 | 8.7 | 14.8 | 0.00 | 0.00 | 0.00 | 63 | 1009.4 |
| 20260506223531 | 86 | 47 | 8.7 | 17.4 | 0.00 | 0.00 | 0.00 | 66 | 1009.3 |
| 20260506223047 | 86 | 66 | 8.7 | 17.4 | 0.00 | 0.00 | 0.00 | 66 | 1009.3 |
| 20260506222534 | 87 | 57 | 10.4 | 17.4 | 0.00 | 0.00 | 0.00 | 65 | 1009.3 |
| 20260506222033 | 88 | 340 | 5.2 | 10.4 | 0.00 | 0.00 | 0.00 | 66 | 1009.2 |
| 20260506221548 | 88 | 53 | 4.3 | 9.6 | 0.00 | 0.00 | 0.00 | 65 | 1009.2 |
| 20260506221034 | 88 | 51 | 3.5 | 8.7 | 0.00 | 0.00 | 0.00 | 65 | 1009.1 |
| 20260506220533 | 88 | 354 | 4.3 | 9.6 | 0.00 | 0.00 | 0.00 | 64 | 1009.1 |
| 20260506220051 | 88 | 37 | 5.2 | 9.6 | 0.00 | 0.00 | 0.00 | 68 | 1009.1 |
| 20260506215534 | 88 | 54 | 5.2 | 9.6 | 0.00 | 0.00 | 0.00 | 65 | 1009.1 |
| 20260506215034 | 87 | 6 | 3.5 | 10.4 | 0.00 | 0.00 | 0.00 | 66 | 1009.1 |
| 20260506214547 | 87 | 23 | 5.2 | 10.4 | 0.00 | 0.00 | 0.00 | 67 | 1009.0 |
| 20260506214033 | 87 | 33 | 4.3 | 9.6 | 0.00 | 0.00 | 0.00 | 69 | 1009.0 |
| 20260506213535 | 85 | 63 | 4.3 | 9.6 | 0.00 | 0.00 | 0.00 | 69 | 1009.2 |
| 20260506213047 | 86 | 62 | 6.1 | 9.6 | 0.00 | 0.00 | 0.00 | 68 | 1009.1 |
| 20260506212533 | 87 | 99 | 2.6 | 7.8 | 0.00 | 0.00 | 0.00 | 67 | 1009.1 |
| 20260506212031 | 87 | 10 | 1.7 | 5.2 | 0.00 | 0.00 | 0.00 | 67 | 1009.3 |
| 20260506211547 | 86 | 42 | 1.7 | 7.0 | 0.00 | 0.00 | 0.00 | 66 | 1009.4 |
| 20260506211031 | 88 | 14 | 3.5 | 7.0 | 0.00 | 0.00 | 0.00 | 65 | 1009.5 |
| 20260506210537 | 86 | 85 | 3.5 | 7.0 | 0.00 | 0.00 | 0.00 | 70 | 1009.5 |
| 20260506210051 | 85 | 114 | 1.7 | 7.8 | 0.00 | 0.00 | 0.00 | 72 | 1009.5 |
| 20260506205533 | 86 | 57 | 4.3 | 7.8 | 0.00 | 0.00 | 0.00 | 68 | 1009.4 |
| 20260506205036 | 87 | 88 | 1.7 | 7.0 | 0.00 | 0.00 | 0.00 | 68 | 1009.5 |
| 20260506204547 | 86 | 124 | 1.7 | 7.0 | 0.00 | 0.00 | 0.00 | 68 | 1009.6 |
| 20260506204033 | 86 | 305 | 2.6 | 7.8 | 0.00 | 0.00 | 0.00 | 68 | 1009.6 |
| 20260506203533 | 86 | 30 | 0.9 | 7.8 | 0.00 | 0.00 | 0.00 | 69 | 1009.8 |
| 20260506203051 | 85 | 349 | 2.6 | 7.8 | 0.00 | 0.00 | 0.00 | 77 | 1009.8 |
| 20260506202533 | 84 | 59 | 1.7 | 7.0 | 0.00 | 0.00 | 0.00 | 69 | 1009.8 |
| 20260506202033 | 85 | 62 | 2.6 | 7.8 | 0.00 | 0.00 | 0.00 | 72 | 1009.8 |
| 20260506201606 | 86 | 26 | 2.6 | 7.8 | 0.00 | 0.00 | 0.00 | 67 | 1009.8 |
| 20260506201037 | 84 | 355 | 0.9 | 6.1 | 0.00 | 0.00 | 0.00 | 68 | 1009.9 |
| 20260506200533 | 83 | 72 | 1.7 | 7.8 | 0.00 | 0.00 | 0.00 | 74 | 1009.9 |
| 20260506200052 | 84 | 83 | 3.5 | 7.8 | 0.00 | 0.00 | 0.00 | 73 | 1010.0 |
| 20260506195531 | 84 | 99 | 1.7 | 7.8 | 0.00 | 0.00 | 0.00 | 71 | 1009.9 |
| 20260506195032 | 84 | 2 | 3.5 | 7.8 | 0.00 | 0.00 | 0.00 | 71 | 1010.1 |
| 20260506194552 | 84 | 317 | 0.0 | 6.1 | 0.00 | 0.00 | 0.00 | 69 | 1010.1 |
| 20260506194036 | 85 | 94 | 2.6 | 6.1 | 0.00 | 0.00 | 0.00 | 71 | 1010.1 |
| 20260506193530 | 83 | 18 | 0.9 | 3.5 | 0.00 | 0.00 | 0.00 | 76 | 1010.3 |
| 20260506193054 | 83 | 76 | 0.9 | 6.1 | 0.00 | 0.00 | 0.00 | 74 | 1010.4 |
| 20260506192535 | 83 | 107 | 1.7 | 7.0 | 0.00 | 0.00 | 0.00 | 75 | 1010.4 |
| 20260506192036 | 84 | 0 | 2.6 | 7.0 | 0.00 | 0.00 | 0.00 | 72 | 1010.5 |
| 20260506191547 | 84 | 111 | 2.6 | 12.2 | 0.00 | 0.00 | 0.00 | 75 | 1010.5 |
| 20260506191036 | 84 | 166 | 3.5 | 12.2 | 0.00 | 0.00 | 0.00 | 72 | 1010.5 |
| 20260506190533 | 85 | 120 | 6.1 | 11.3 | 0.00 | 0.00 | 0.00 | 73 | 1010.6 |
| 20260506190047 | 85 | 104 | 4.3 | 10.4 | 0.00 | 0.00 | 0.00 | 72 | 1010.5 |
| 20260506185532 | 84 | 86 | 4.3 | 7.8 | 0.00 | 0.00 | 0.00 | 75 | 1010.5 |
| 20260506185035 | 84 | 112 | 4.3 | 8.7 | 0.00 | 0.00 | 0.00 | 74 | 1010.6 |
| 20260506184551 | 84 | 143 | 4.3 | 8.7 | 0.00 | 0.00 | 0.00 | 72 | 1010.7 |
| 20260506184035 | 83 | 93 | 5.2 | 8.7 | 0.00 | 0.00 | 0.00 | 76 | 1010.8 |
| 20260506183534 | 84 | 118 | 4.3 | 8.7 | 0.00 | 0.00 | 0.00 | 76 | 1010.8 |
| 20260506183047 | 82 | 126 | 4.3 | 8.7 | 0.00 | 0.00 | 0.00 | 75 | 1011.0 |
| 20260506182534 | 83 | 120 | 5.2 | 8.7 | 0.00 | 0.00 | 0.00 | 74 | 1011.0 |
| 20260506182035 | 82 | 151 | 1.7 | 7.0 | 0.00 | 0.00 | 0.00 | 79 | 1011.1 |
| 20260506181549 | 81 | 66 | 3.5 | 8.7 | 0.00 | 0.00 | 0.00 | 79 | 1011.2 |
| 20260506181032 | 81 | 183 | 2.6 | 9.6 | 0.00 | 0.00 | 0.00 | 78 | 1011.2 |
| 20260506180537 | 81 | 97 | 4.3 | 9.6 | 0.00 | 0.00 | 0.00 | 80 | 1011.3 |
| 20260506180049 | 80 | 134 | 5.2 | 9.6 | 0.00 | 0.00 | 0.00 | 81 | 1011.3 |
| 20260506175536 | 79 | 136 | 6.1 | 9.6 | 0.00 | 0.00 | 0.00 | 84 | 1011.2 |
| 20260506175033 | 78 | 141 | 3.5 | 7.8 | 0.00 | 0.00 | 0.00 | 84 | 1011.3 |
| 20260506174545 | 78 | 146 | 4.3 | 7.8 | 0.00 | 0.00 | 0.00 | 85 | 1011.3 |
| 20260506174035 | 78 | 100 | 3.5 | 7.8 | 0.00 | 0.00 | 0.00 | 86 | 1011.3 |
| 20260506173536 | 78 | 119 | 2.6 | 7.0 | 0.00 | 0.00 | 0.00 | 86 | 1011.4 |
| 20260506173105 | 77 | 133 | 2.6 | 6.1 | 0.00 | 0.00 | 0.00 | 86 | 1011.3 |
| 20260506172534 | 77 | 104 | 3.5 | 6.1 | 0.00 | 0.00 | 0.00 | 86 | 1011.4 |
| 20260506172033 | 77 | 106 | 2.6 | 7.8 | 0.00 | 0.00 | 0.00 | 86 | 1011.4 |
| 20260506171554 | 77 | 139 | 2.6 | 7.8 | 0.00 | 0.00 | 0.00 | 86 | 1011.4 |
| 20260506171035 | 77 | 97 | 4.3 | 8.7 | 0.00 | 0.00 | 0.00 | 86 | 1011.3 |
| 20260506170533 | 77 | 97 | 5.2 | 8.7 | 0.00 | 0.00 | 0.00 | 85 | 1011.4 |
| 20260506170044 | 78 | 84 | 6.1 | 10.4 | 0.00 | 0.00 | 0.00 | 84 | 1011.3 |
| 20260506165538 | 79 | 100 | 4.3 | 10.4 | 0.00 | 0.00 | 0.00 | 85 | 1011.4 |
| 20260506165034 | 79 | 79 | 6.1 | 10.4 | 0.00 | 0.00 | 0.00 | 85 | 1011.3 |
| 20260506164547 | 78 | 96 | 6.1 | 10.4 | 0.00 | 0.00 | 0.00 | 84 | 1011.4 |
| 20260506164035 | 78 | 108 | 6.1 | 10.4 | 0.00 | 0.00 | 0.00 | 85 | 1011.4 |
| 20260506163533 | 78 | 88 | 6.1 | 8.7 | 0.00 | 0.00 | 0.00 | 86 | 1011.3 |
| 20260506163101 | 78 | 69 | 5.2 | 7.8 | 0.00 | 0.00 | 0.00 | 86 | 1011.3 |
| 20260506162534 | 77 | 102 | 3.5 | 7.8 | 0.00 | 0.00 | 0.00 | 86 | 1011.3 |
| 20260506162037 | 77 | 42 | 5.2 | 7.8 | 0.00 | 0.00 | 0.00 | 87 | 1011.2 |
| 20260506161548 | 77 | 89 | 3.5 | 7.8 | 0.00 | 0.00 | 0.00 | 89 | 1011.1 |
| 20260506161036 | 76 | 76 | 5.2 | 7.8 | 0.00 | 0.00 | 0.00 | 90 | 1011.1 |
| 20260506160535 | 76 | 66 | 5.2 | 7.8 | 0.00 | 0.00 | 0.00 | 89 | 1011.0 |
| 20260506160046 | 76 | 76 | 4.3 | 7.8 | 0.00 | 0.00 | 0.00 | 89 | 1011.0 |
| 20260506155533 | 76 | 62 | 3.5 | 7.8 | 0.00 | 0.00 | 0.00 | 89 | 1011.0 |
| 20260506155034 | 76 | 64 | 2.6 | 7.0 | 0.00 | 0.00 | 0.00 | 89 | 1011.0 |
| 20260506154555 | 76 | 84 | 3.5 | 7.0 | 0.00 | 0.00 | 0.00 | 89 | 1010.8 |
| 20260506154033 | 76 | 64 | 3.5 | 7.0 | 0.00 | 0.00 | 0.00 | 89 | 1010.8 |
| 20260506153534 | 76 | 54 | 2.6 | 7.0 | 0.00 | 0.00 | 0.00 | 89 | 1010.7 |
| 20260506153049 | 76 | 75 | 4.3 | 7.0 | 0.00 | 0.00 | 0.00 | 89 | 1010.7 |
| 20260506152534 | 76 | 38 | 2.6 | 5.2 | 0.00 | 0.00 | 0.00 | 90 | 1010.7 |
| 20260506152037 | 76 | 85 | 2.6 | 5.2 | 0.00 | 0.00 | 0.00 | 90 | 1010.6 |
| 20260506151549 | 76 | 64 | 1.7 | 4.3 | 0.00 | 0.00 | 0.00 | 90 | 1010.6 |
| 20260506151033 | 76 | 50 | 1.7 | 4.3 | 0.00 | 0.00 | 0.00 | 90 | 1010.6 |
| 20260506150534 | 76 | 60 | 2.6 | 4.3 | 0.00 | 0.00 | 0.00 | 90 | 1010.6 |
| 20260506150048 | 75 | 58 | 1.7 | 5.2 | 0.00 | 0.00 | 0.00 | 90 | 1010.4 |
| 20260506145536 | 75 | 62 | 1.7 | 5.2 | 0.00 | 0.00 | 0.00 | 91 | 1010.4 |
| 20260506145039 | 75 | 62 | 1.7 | 5.2 | 0.00 | 0.00 | 0.00 | 91 | 1010.4 |
| 20260506144548 | 75 | 65 | 1.7 | 5.2 | 0.00 | 0.00 | 0.00 | 91 | 1010.3 |
| 20260506144033 | 75 | 109 | 2.6 | 5.2 | 0.00 | 0.00 | 0.00 | 91 | 1010.2 |
| 20260506143537 | 75 | 92 | 2.6 | 5.2 | 0.00 | 0.00 | 0.00 | 91 | 1010.2 |
| 20260506143045 | 75 | 94 | 1.7 | 3.5 | 0.00 | 0.00 | 0.00 | 92 | 1010.1 |
| 20260506142534 | 75 | 95 | 0.9 | 4.3 | 0.00 | 0.00 | 0.00 | 92 | 1010.0 |
| 20260506142037 | 75 | 120 | 1.7 | 5.2 | 0.00 | 0.00 | 0.00 | 92 | 1009.9 |
| 20260506141553 | 75 | 115 | 1.7 | 6.1 | 0.00 | 0.00 | 0.00 | 92 | 1009.9 |
| 20260506141035 | 75 | 95 | 1.7 | 6.1 | 0.00 | 0.00 | 0.00 | 92 | 1009.8 |
| 20260506140535 | 75 | 105 | 2.6 | 6.1 | 0.00 | 0.00 | 0.00 | 92 | 1009.8 |
| 20260506140055 | 75 | 74 | 1.7 | 7.8 | 0.00 | 0.00 | 0.00 | 92 | 1009.7 |
| 20260506135532 | 75 | 112 | 2.6 | 7.8 | 0.00 | 0.00 | 0.00 | 92 | 1009.6 |
| 20260506135033 | 74 | 135 | 3.5 | 7.8 | 0.00 | 0.00 | 0.00 | 92 | 1009.3 |
| 20260506134548 | 74 | 114 | 4.3 | 7.8 | 0.00 | 0.00 | 0.00 | 92 | 1009.3 |
| 20260506134035 | 74 | 115 | 1.7 | 7.0 | 0.00 | 0.00 | 0.00 | 92 | 1009.1 |
| 20260506133535 | 74 | 119 | 2.6 | 7.8 | 0.00 | 0.00 | 0.00 | 92 | 1009.0 |
| 20260506133045 | 74 | 130 | 3.5 | 7.8 | 0.00 | 0.00 | 0.00 | 92 | 1009.0 |
| 20260506132534 | 74 | 135 | 2.6 | 6.1 | 0.00 | 0.00 | 0.00 | 92 | 1008.9 |
| 20260506132034 | 74 | 145 | 3.5 | 6.1 | 0.00 | 0.00 | 0.00 | 92 | 1009.0 |
| 20260506131548 | 74 | 126 | 2.6 | 6.1 | 0.00 | 0.00 | 0.00 | 92 | 1009.1 |
| 20260506131036 | 74 | 150 | 1.7 | 7.0 | 0.00 | 0.00 | 0.00 | 92 | 1008.9 |
| 20260506130534 | 74 | 124 | 1.7 | 8.7 | 0.00 | 0.00 | 0.00 | 92 | 1008.8 |
| 20260506130052 | 74 | 138 | 4.3 | 8.7 | 0.00 | 0.00 | 0.00 | 92 | 1008.8 |
| 20260506125535 | 74 | 147 | 3.5 | 7.0 | 0.00 | 0.00 | 0.00 | 92 | 1008.7 |
| 20260506125033 | 74 | 154 | 3.5 | 7.0 | 0.00 | 0.00 | 0.00 | 92 | 1008.6 |
| 20260506124545 | 74 | 136 | 3.5 | 7.0 | 0.00 | 0.00 | 0.00 | 92 | 1008.7 |
| 20260506124033 | 74 | 124 | 2.6 | 7.0 | 0.00 | 0.00 | 0.00 | 92 | 1008.7 |
| 20260506123533 | 74 | 139 | 2.6 | 7.0 | 0.00 | 0.00 | 0.00 | 92 | 1008.6 |
| 20260506123042 | 74 | 121 | 3.5 | 7.0 | 0.00 | 0.00 | 0.00 | 92 | 1008.7 |
| 20260506122533 | 74 | 86 | 3.5 | 7.0 | 0.00 | 0.00 | 0.00 | 92 | 1008.7 |
| 20260506122033 | 74 | 129 | 1.7 | 5.2 | 0.00 | 0.00 | 0.00 | 92 | 1008.7 |
| 20260506121549 | 74 | 127 | 1.7 | 4.3 | 0.00 | 0.00 | 0.00 | 92 | 1008.7 |
| 20260506121034 | 74 | 114 | 0.9 | 3.5 | 0.00 | 0.00 | 0.00 | 91 | 1008.7 |
| 20260506120534 | 74 | 89 | 1.7 | 7.0 | 0.00 | 0.00 | 0.00 | 91 | 1008.7 |
| 20260506120106 | 74 | 172 | 2.6 | 7.0 | 0.00 | 0.00 | 0.00 | 91 | 1008.7 |
| 20260506115534 | 74 | 103 | 2.6 | 6.1 | 0.00 | 0.00 | 0.00 | 91 | 1008.6 |
| 20260506115033 | 74 | 114 | 2.6 | 6.1 | 0.00 | 0.00 | 0.00 | 91 | 1008.6 |
| 20260506114558 | 74 | 109 | 1.7 | 4.3 | 0.00 | 0.00 | 0.00 | 91 | 1008.5 |
| 20260506114033 | 74 | 120 | 0.9 | 4.3 | 0.00 | 0.00 | 0.00 | 91 | 1008.6 |
| 20260506113533 | 74 | 124 | 1.7 | 4.3 | 0.00 | 0.00 | 0.00 | 91 | 1008.6 |
| 20260506113046 | 74 | 119 | 1.7 | 4.3 | 0.00 | 0.00 | 0.00 | 91 | 1008.6 |
| 20260506112535 | 74 | 116 | 0.9 | 4.3 | 0.00 | 0.00 | 0.00 | 91 | 1008.6 |
| 20260506112034 | 74 | 126 | 1.7 | 4.3 | 0.00 | 0.00 | 0.00 | 91 | 1008.6 |
| 20260506111553 | 74 | 99 | 1.7 | 3.5 | 0.00 | 0.00 | 0.00 | 91 | 1008.6 |
| 20260506111033 | 74 | 63 | 0.0 | 2.6 | 0.00 | 0.00 | 0.00 | 91 | 1008.6 |
| 20260506110534 | 74 | 63 | 0.9 | 2.6 | 0.00 | 0.00 | 0.00 | 91 | 1008.6 |
| 20260506110051 | 74 | 0 | 0.0 | 2.6 | 0.00 | 0.00 | 0.00 | 91 | 1008.7 |
| 20260506105532 | 74 | 0 | 0.9 | 2.6 | 0.00 | 0.00 | 0.00 | 91 | 1008.7 |
| 20260506105036 | 74 | 122 | 0.0 | 4.3 | 0.00 | 0.00 | 0.00 | 91 | 1008.6 |
| 20260506104547 | 74 | 122 | 0.9 | 4.3 | 0.00 | 0.00 | 0.00 | 91 | 1008.7 |
| 20260506104034 | 74 | 0 | 0.9 | 4.3 | 0.00 | 0.00 | 0.00 | 91 | 1008.6 |
| 20260506103534 | 74 | 99 | 0.9 | 2.6 | 0.00 | 0.00 | 0.00 | 91 | 1008.5 |
| 20260506103047 | 74 | 99 | 0.0 | 3.5 | 0.00 | 0.00 | 0.00 | 91 | 1008.4 |
| 20260506102535 | 74 | 99 | 0.9 | 5.2 | 0.00 | 0.00 | 0.00 | 91 | 1008.4 |
| 20260506102034 | 74 | 0 | 0.9 | 5.2 | 0.00 | 0.00 | 0.00 | 91 | 1008.4 |
| 20260506101547 | 74 | 86 | 1.7 | 7.8 | 0.00 | 0.00 | 0.00 | 91 | 1008.6 |
| 20260506101033 | 74 | 120 | 1.7 | 8.7 | 0.00 | 0.00 | 0.00 | 91 | 1008.4 |
| 20260506100533 | 74 | 146 | 2.6 | 8.7 | 0.00 | 0.00 | 0.00 | 90 | 1008.2 |
| 20260506100051 | 74 | 153 | 4.3 | 8.7 | 0.00 | 0.00 | 0.00 | 91 | 1008.2 |
| 20260506095532 | 74 | 149 | 3.5 | 7.0 | 0.00 | 0.00 | 0.00 | 91 | 1008.2 |
| 20260506095034 | 74 | 134 | 3.5 | 7.0 | 0.00 | 0.00 | 0.00 | 91 | 1008.2 |
| 20260506094547 | 74 | 154 | 0.9 | 5.2 | 0.00 | 0.00 | 0.00 | 90 | 1008.4 |
| 20260506094034 | 74 | 108 | 2.6 | 7.0 | 0.00 | 0.00 | 0.00 | 90 | 1008.4 |
| 20260506093537 | 74 | 130 | 1.7 | 7.8 | 0.00 | 0.00 | 0.00 | 90 | 1008.5 |
| 20260506093105 | 74 | 119 | 3.5 | 10.4 | 0.00 | 0.00 | 0.00 | 90 | 1008.5 |
| 20260506092534 | 74 | 148 | 4.3 | 12.2 | 0.00 | 0.00 | 0.00 | 90 | 1008.5 |
| 20260506092034 | 74 | 154 | 6.1 | 12.2 | 0.00 | 0.00 | 0.00 | 90 | 1008.3 |
| 20260506091549 | 75 | 142 | 5.2 | 9.6 | 0.00 | 0.00 | 0.00 | 90 | 1008.4 |
| 20260506091034 | 75 | 163 | 5.2 | 9.6 | 0.00 | 0.00 | 0.00 | 90 | 1008.4 |
| 20260506090533 | 75 | 148 | 3.5 | 7.8 | 0.00 | 0.00 | 0.00 | 90 | 1008.4 |
| 20260506090055 | 75 | 155 | 3.5 | 8.7 | 0.00 | 0.00 | 0.00 | 90 | 1008.5 |
| 20260506085533 | 75 | 141 | 2.6 | 10.4 | 0.00 | 0.00 | 0.00 | 90 | 1008.4 |
| 20260506085034 | 75 | 137 | 6.1 | 10.4 | 0.00 | 0.00 | 0.00 | 89 | 1008.4 |
| 20260506084547 | 75 | 116 | 4.3 | 8.7 | 0.00 | 0.00 | 0.00 | 89 | 1008.5 |
| 20260506084038 | 75 | 113 | 2.6 | 7.8 | 0.00 | 0.00 | 0.00 | 89 | 1008.5 |
| 20260506083534 | 75 | 123 | 2.6 | 7.8 | 0.00 | 0.00 | 0.00 | 89 | 1008.5 |
| 20260506083047 | 75 | 111 | 3.5 | 7.0 | 0.00 | 0.00 | 0.00 | 89 | 1008.5 |
| 20260506082534 | 75 | 134 | 3.5 | 7.8 | 0.00 | 0.00 | 0.00 | 89 | 1008.6 |
| 20260506082034 | 75 | 116 | 2.6 | 7.8 | 0.00 | 0.00 | 0.00 | 89 | 1008.5 |
| 20260506081544 | 75 | 137 | 3.5 | 7.8 | 0.00 | 0.00 | 0.00 | 89 | 1008.6 |
| 20260506081042 | 75 | 159 | 4.3 | 10.4 | 0.00 | 0.00 | 0.00 | 89 | 1008.6 |
| 20260506080534 | 75 | 160 | 4.3 | 10.4 | 0.00 | 0.00 | 0.00 | 89 | 1008.7 |
| 20260506073053 | 75 | 151 | 5.2 | 13.0 | 0.00 | 0.00 | 0.00 | 89 | 1008.7 |